Terminal Aerodrome Forecast
Issued by NWS Medford, OR

Home | Current Version | Previous Version | Text Only | Print | Product List | Glossary On
Versions: 1 2 3 4 5 6 7 8 9 10 11 12 13 14 15 16
938
FTUS46 KMFR 301745
TAFMFR
TAF
KMFR 301745Z 3018/3118 30005KT P6SM SKC
     FM302300 30012G18KT P6SM SKC
     FM310400 VRB04KT P6SM SKC=

USA.gov is the U.S. government's official web portal to all federal, state and local government web resources and services.